This is the latest recevied weather packets stored in our database for station/object K7FRY. If no packets are shown the sender has not sent any weather packets the latest 1 day(s).
| Time | Temp. | Humidity | Pressure | Rain* | Wind** | Luminosity | Snow |
|---|---|---|---|---|---|---|---|
| 1778036848 | 17.78° C | 48% | 1013.3 hPa | 0 mm | 0.45 m/s, 221° | 0 W/m² | - |
| 1778036545 | 17.78° C | 47% | 1013.4 hPa | 0 mm | 0.45 m/s, 218° | 0 W/m² | - |
| 1778036242 | 18.33° C | 47% | 1013.3 hPa | 0 mm | 0 m/s | 0 W/m² | - |
| 1778035938 | 18.33° C | 45% | 1013.1 hPa | 0 mm | 0.89 m/s, 230° | 0 W/m² | - |
| 1778035635 | 18.33° C | 46% | 1013.3 hPa | 0 mm | 0.45 m/s, 217° | 0 W/m² | - |
| 1778035331 | 18.33° C | 45% | 1013.1 hPa | 0 mm | 1.34 m/s, 259° | 0 W/m² | - |
| 1778035028 | 18.89° C | 45% | 1013.2 hPa | 0 mm | 0 m/s | 0 W/m² | - |
| 1778034725 | 18.89° C | 44% | 1012.9 hPa | 0 mm | 0.89 m/s, 233° | 0 W/m² | - |
| 1778034422 | 18.89° C | 44% | 1012.7 hPa | 0 mm | 0.89 m/s, 233° | 0 W/m² | - |
| 1778034119 | 18.89° C | 44% | 1012.7 hPa | 0 mm | 0.89 m/s, 245° | 0 W/m² | - |
| 1778033817 | 19.44° C | 43% | 1012.6 hPa | 0 mm | 1.79 m/s, 262° | 0 W/m² | - |
| 1778033514 | 20° C | 42% | 1012.4 hPa | 0 mm | 2.24 m/s, 279° | 0 W/m² | - |
| 1778033211 | 20.56° C | 40% | 1012 hPa | 0 mm | 2.24 m/s, 284° | 2 W/m² | - |
| 1778032909 | 20.56° C | 38% | 1011.9 hPa | 0 mm | 2.68 m/s, 222° | 3 W/m² | - |
| 1778032606 | 20.56° C | 37% | 1012 hPa | 0 mm | 5.36 m/s, 257° | 6 W/m² | - |
| 1778032304 | 20.56° C | 38% | 1011.8 hPa | 0 mm | 1.34 m/s, 280° | 10 W/m² | - |
| 1778032001 | 20.56° C | 39% | 1011.8 hPa | 0 mm | 2.68 m/s, 277° | 13 W/m² | - |
| 1778031696 | 20.56° C | 39% | 1011.6 hPa | 0 mm | 3.58 m/s, 218° | 16 W/m² | - |
| 1778031395 | 20.56° C | 40% | 1011.5 hPa | 0 mm | 2.68 m/s, 271° | 20 W/m² | - |
| 1778031091 | 20.56° C | 41% | 1011.6 hPa | 0 mm | 3.58 m/s, 280° | 24 W/m² | - |
| 1778030787 | 20.56° C | 41% | 1011.6 hPa | 0 mm | 2.24 m/s, 257° | 25 W/m² | - |
| 1778030484 | 20.56° C | 42% | 1011.5 hPa | 0 mm | 1.79 m/s, 284° | 27 W/m² | - |
| 1778030181 | 20.56° C | 42% | 1011.5 hPa | 0 mm | 2.68 m/s, 296° | 27 W/m² | - |
| 1778029872 | 20.56° C | 42% | 1011.4 hPa | 0 mm | 3.58 m/s, 243° | 28 W/m² | - |
| 1778029572 | 20.56° C | 42% | 1011.4 hPa | 0 mm | 2.24 m/s, 304° | 32 W/m² | - |
* Rain latest hour (hover to see other rain measurements)
** Current wind speed in m/s (hover to see current wind gust speed)